Flag for Germany Weather past 2 weeks in Meissen, Saxony, Germany

Now
45 °F

Clear.


Feels Like: 37 °F
Forecast: 35 / 44 °F
Wind: 18 mph from Southwest

Location: Dresden-Klotzsche

Current Time: Mar 3, 2015 at 10:16:23 PM

Latest Report: Mar 3, 2015 at 9:20 PM


Visibility: 10 mi

Pressure: 29.95 "Hg

Humidity: 53%

Dew point: 28 °F

Location of MeissenLocation

Historic Weather in Meissen — Graph

°F

Meissen temperature yesterday

Maximum temperature yesterday: 45 °F (at 11:20 AM)
Minimum temperature yesterday: 32 °F (at 11:50 PM)
Average temperature yesterday: 42 °F

Past Weeks' High & Low Weather Summary

 TemperatureHumidityPressure
High52 °F (Feb 20, 2:20 PM)100% (Feb 17, 5:50 PM)30.72 "Hg (Feb 17, 5:50 PM)
Low25 °F (Feb 20, 3:20 AM)34% (Feb 26, 2:20 PM)29.45 "Hg (Feb 21, 1:20 PM)
Average38 °F75%29.97 "Hg
* Reported Feb 16 9:20 PM — Mar 3 9:20 PM, Meissen, Weather by CustomWeather, © 2015

Note: Actual official high and low records may vary slightly from our data, if they occured in-between our weather recording intervals... More about our weather records

Advertising

Meissen weather history for previous 24 hours

 ConditionsComfort  
Time TempWeatherWind HumidityBarometerVisibility
9:20 PM
Tue, Mar 3
45 °FClear.18 mph53%29.95 "Hg10 mi
8:50 PM43 °FClear.16 mph53%29.98 "Hg10 mi
8:20 PM43 °FClear.14 mph49%29.98 "Hg10 mi
7:50 PM43 °FClear.13 mph49%29.98 "Hg10 mi
7:20 PM41 °FClear.13 mph53%30.01 "Hg10 mi
6:50 PM41 °FClear.10 mph57%30.01 "Hg10 mi
6:20 PM43 °FClear.12 mph53%30.01 "Hg10 mi
5:50 PM43 °FClear.12 mph53%30.01 "Hg10 mi
5:20 PM43 °FScattered clouds.12 mph53%30.04 "HgN/A
4:50 PM43 °FScattered clouds.10 mph57%30.04 "HgN/A
4:20 PM43 °FScattered clouds.12 mph57%30.04 "HgN/A
3:50 PM45 °FScattered clouds.13 mph53%30.04 "HgN/A
3:20 PM45 °FScattered clouds.14 mph49%30.07 "HgN/A
2:50 PM45 °FPartly sunny.12 mph49%30.07 "HgN/A
2:20 PM45 °FPartly sunny.13 mph53%30.07 "HgN/A
1:50 PM43 °FPartly sunny.15 mph53%30.07 "HgN/A
1:20 PM43 °FPartly sunny.13 mph57%30.07 "HgN/A
12:50 PM43 °FScattered clouds.13 mph57%30.07 "HgN/A
12:20 PM43 °FScattered clouds.14 mph57%30.07 "HgN/A
11:50 AM41 °FScattered clouds.16 mph61%30.07 "HgN/A
11:20 AM41 °FScattered clouds.17 mph61%30.07 "HgN/A
10:50 AM39 °FScattered clouds.17 mph61%30.07 "HgN/A
10:20 AM39 °FPassing clouds.17 mph65%30.07 "HgN/A
9:50 AM39 °FPassing clouds.17 mph65%30.07 "HgN/A
9:20 AM37 °FPassing clouds.15 mph70%30.04 "HgN/A
8:50 AM37 °FPassing clouds.13 mph70%30.04 "HgN/A
8:20 AM36 °FPassing clouds.13 mph70%30.04 "HgN/A
7:50 AM36 °FPassing clouds.13 mph70%30.01 "HgN/A
7:20 AM36 °FPassing clouds.13 mph70%30.01 "HgN/A
6:50 AM36 °FSunny.14 mph70%29.98 "Hg10 mi
6:20 AM36 °FPassing clouds.13 mph70%29.98 "HgN/A
5:50 AM36 °FClear.12 mph75%29.98 "Hg10 mi
5:20 AM36 °FPassing clouds.15 mph75%29.95 "HgN/A
4:50 AM36 °FPassing clouds.15 mph75%29.95 "HgN/A
4:20 AM36 °FPartly cloudy.17 mph75%29.95 "HgN/A
3:50 AM36 °FPartly cloudy.15 mph81%29.92 "HgN/A
3:20 AM36 °FPartly cloudy.20 mph75%29.89 "HgN/A
2:50 AM36 °FClear.16 mph75%29.89 "Hg10 mi
2:20 AM36 °FClear.17 mph81%29.89 "Hg10 mi
1:50 AM36 °FClear.15 mph81%29.86 "Hg10 mi
1:20 AM36 °FClear.14 mph87%29.86 "Hg10 mi
12:50 AM34 °FPartly cloudy.10 mph93%29.86 "HgN/A
12:20 AM34 °FLight snow. Partly cloudy.12 mph93%29.83 "HgN/A
11:50 PM
Mon, Mar 2
32 °FLight snow. Ice fog.14 mph100%29.83 "Hg2 mi
11:20 PM36 °FLight rain. Partly cloudy.14 mph87%29.77 "Hg4 mi
10:50 PM39 °FClear.12 mph70%29.74 "Hg10 mi
10:20 PM37 °FClear.7 mph65%29.71 "Hg10 mi
Weather by CustomWeather, © 2015

See weather overviewHow to use our weather pages